Weather History for Nassau, Bahamas

Change the Weather History Date:

Sunday, November 25, 2012

  Actual Average Record
Temperature  
Mean Temperature 70 °F -  
Max Temperature 79 °F 80 °F 87 °F (2004)
Min Temperature 62 °F 65 °F 55 °F (2005)
Cooling Degree Days 6    
Growing Degree Days 20 (Base 50)    
Moisture  
Dew Point 59 °F    
Average Humidity 66    
Maximum Humidity 83    
Minimum Humidity 46    
Precipitation  
Precipitation 0.00 in 0.07 in - ()
Sea Level Pressure  
Sea Level Pressure 30.09 in    
Wind  
Wind Speed 2 mph ()    
Max Wind Speed 12 mph    
Max Gust Speed -    
Visibility 6.9 miles    
Events      
Averages and records for this station are not official NWS values.
T = Trace of Precipitation, MM = Missing Value Source: Averaged Metar Reports

Daily Weather History Graph

Daily Weather History Graph

Search for Another Location

Airport:

Trip Planner

Search our weather history database for the weather conditions in past years. The results will help you decide how hot, cold, wet, or windy it might be!

Date:

Astronomy

Nov. 25, 2012 Rise Set
Actual Time 6:34 AM EST 5:19 PM EST
Civil Twilight 6:09 AM EST 5:44 PM EST
Nautical Twilight 5:41 AM EST 6:12 PM EST
Astronomical Twilight 5:13 AM EST 6:40 PM EST
Moon 3:26 PM EST (11/25) 3:57 AM EST (11/25)
Length of Visible Light 11h 34m
Length of Day
10h 45m
Waxing Gibbous, 93% of the Moon is Illuminated
Nov 25
Waxing Gibbous
Nov 28
Full
Dec 6
Last Quarter
Dec 13
New
Dec 20
First Quarter

Hourly Weather History & Observations

Time (EST) Temp. Dew Point Humidity Pressure Visibility Wind Dir Wind Speed Gust Speed Precip Events Conditions
12:00 AM 69.8 °F 55.4 °F 60% 30.05 in 6.2 mi WNW 4.6 mph - N/A   Partly Cloudy
1:00 AM 62 °F 57 °F 78% 30.08 in 9 mi Calm Calm - -   Partly Cloudy
1:00 AM 69.8 °F 59.0 °F 68% 30.05 in 6.2 mi WNW 3.5 mph - N/A   Partly Cloudy
2:00 AM 69.8 °F 57.2 °F 64% 30.04 in 6.2 mi WNW 3.5 mph - N/A   Partly Cloudy
3:00 AM 68.0 °F 57.2 °F 68% 30.04 in 6.2 mi Calm Calm - N/A   Partly Cloudy
4:00 AM 64 °F 58 °F 73% 30.05 in 9 mi Calm Calm - -  
4:00 AM 64.4 °F 57.2 °F 77% 30.05 in - Calm Calm - N/A   Clear
5:00 AM 66.2 °F 55.4 °F 68% 30.05 in 6.2 mi Calm Calm - N/A   Partly Cloudy
6:00 AM 64.4 °F 55.4 °F 73% 30.06 in 6.2 mi Calm Calm - N/A   Partly Cloudy
7:00 AM 62.6 °F 57.2 °F 82% 30.08 in 6.2 mi Calm Calm - N/A   Scattered Clouds
8:00 AM 68.0 °F 57.2 °F 68% 30.09 in 6.2 mi Calm Calm - N/A   Scattered Clouds
9:00 AM 73.4 °F 59.0 °F 61% 30.11 in 6.2 mi Calm Calm - N/A   Scattered Clouds
10:00 AM 75 °F 60 °F 49% 30.13 in 9 mi Calm Calm - -   Partly Cloudy
10:00 AM 75.2 °F 59.0 °F 57% 30.13 in 6.2 mi Calm Calm - N/A   Scattered Clouds
11:00 AM 75.2 °F 57.2 °F 53% - 6.2 mi NNE 3.5 mph - N/A   Scattered Clouds
11:55 AM 75.2 °F 57.2 °F 53% 30.12 in 6.2 mi North 4.6 mph - N/A   Scattered Clouds
1:00 PM 77 °F 60 °F 46% 30.11 in 9 mi NNE 9.2 mph - -   Scattered Clouds
1:00 PM 77.0 °F 60.8 °F 57% 30.10 in 6.2 mi NNE 9.2 mph - N/A   Partly Cloudy
2:00 PM 75.2 °F 59.0 °F 57% 30.08 in 6.2 mi North 11.5 mph - N/A   Partly Cloudy
3:00 PM 73.4 °F 59.0 °F 61% 30.07 in 6.2 mi NNE 3.5 mph - N/A   Partly Cloudy
4:00 PM 75 °F 60 °F 51% 30.07 in 9 mi NNE 3.5 mph - -   Partly Cloudy
4:00 PM 75.2 °F 60.8 °F 61% 30.06 in 6.2 mi NNE 3.5 mph - N/A   Scattered Clouds
5:00 PM 73.4 °F 59.0 °F 61% 30.07 in 6.2 mi North 4.6 mph - N/A   Scattered Clouds
6:00 PM 71.6 °F 59.0 °F 64% 30.08 in 6.2 mi Variable 1.2 mph - N/A   Partly Cloudy
7:00 PM 69 °F 60 °F 67% 30.11 in 9 mi Calm Calm - -   Scattered Clouds
7:00 PM 69.8 °F 60.8 °F 73% 30.11 in 6.2 mi Calm Calm - N/A   Partly Cloudy
8:00 PM 69.8 °F 60.8 °F 73% 30.12 in 6.2 mi Calm Calm - N/A   Partly Cloudy
9:00 PM 69.8 °F 60.8 °F 73% 30.14 in 6.2 mi Calm Calm - N/A   Scattered Clouds
10:00 PM 68 °F 62 °F 76% 30.14 in 9 mi Calm Calm - -   Partly Cloudy
10:00 PM 68.0 °F 62.6 °F 83% 30.14 in 6.2 mi Calm Calm - N/A   Scattered Clouds
11:00 PM 68.0 °F 60.8 °F 78% 30.14 in 6.2 mi Variable 2.3 mph - N/A   Scattered Clouds